Regional Weather Roundup
Issued by NWS

Home | Current Version | Previous Version | Text Only | Print | Product List | Glossary Off
Versions: 1 2 3 4 5 6 7 8 9 10 11 12 13 14 15 16 17 18 19 20 21 22 23 24 25 26 27 28 29 30 31 32 33 34 35 36 37 38 39 40 41 42 43 44 45 46 47 48

000
ASUS45 KCYS 231210
RWRWY

WYOMING REGIONAL WEATHER ROUNDUP
NATIONAL WEATHER SERVICE CHEYENNE WY
600 AM MDT TUE SEP 23 2014

NOTE:  "FAIR" INDICATES FEW OR NO CLOUDS BELOW 12,000 FEET
WITH NO SIGNIFICANT WEATHER AND/OR OBSTRUCTIONS TO VISIBILITY.

WYZ001-231300-
YELLOWSTONE NATIONAL PARK

CITY           SKY/WX    TMP DP  RH WIND       PRES   REMARKS
LK YELLOWSTONE   N/A     47  46  97 CALM      30.31S
6HR MIN TEMP:  46; 6HR MAX TEMP:  47;

W YELLOWSTONE  NOT AVBL

$$
WYZ002>013-054>058-071-098>099-231300-
NORTHERN WYOMING

CITY           SKY/WX    TMP DP  RH WIND       PRES   REMARKS
JACKSON        MOCLDY    48  48 100 E6        30.24S
CODY           CLOUDY    63  45  51 W5        30.08R
GREYBULL       MOCLDY    52  45  77 CALM      30.02S
6HR MIN TEMP:  50; 6HR MAX TEMP:  61;

WORLAND        CLEAR     48  44  86 S6        30.04R
6HR MIN TEMP:  48; 6HR MAX TEMP:  59;

SHERIDAN       PTCLDY    52  45  77 CALM      29.97S
6HR MIN TEMP:  49; 6HR MAX TEMP:  57;

BUFFALO        CLEAR     53  41  63 W7        30.03S
6HR MIN TEMP:  53; 6HR MAX TEMP:  59;

GILLETTE       MOCLDY    58  49  72 SW6       29.98F
6HR MIN TEMP:  56; 6HR MAX TEMP:  62;

HULETT         LGT RAIN  57  54  88 MISG      30.00
NEWCASTLE      FAIR      55  50  82 NW3       29.99

$$
WYZ014>020-022>026-101>103-231300-
CENTRAL WYOMING

CITY           SKY/WX    TMP DP  RH WIND       PRES   REMARKS
BIG PINEY      MOCLDY    40  38  93 CALM      30.26S
6HR MIN TEMP:  37; 6HR MAX TEMP:  46;

PINEDALE       CLOUDY    43  43 100 CALM      30.27R
DUBOIS         FAIR      48  41  76 NW12      30.22S
LANDER         CLEAR     47  39  74 N5        30.11S
6HR MIN TEMP:  46; 6HR MAX TEMP:  59;

RIVERTON       PTCLDY    55  40  56 W14       30.12R
6HR MIN TEMP:  53; 6HR MAX TEMP:  62;

CASPER         PTCLDY    55  40  56 SW10      30.09R
6HR MIN TEMP:  53; 6HR MAX TEMP:  61;

DOUGLAS        PTCLDY    50  42  74 NW6       30.06S
6HR MIN TEMP:  49; 6HR MAX TEMP:  57;


$$
WYZ021-027>030-104>119-231300-
SOUTHERN WYOMING

CITY           SKY/WX    TMP DP  RH WIND       PRES   REMARKS
EVANSTON       CLOUDY    52  45  77 SW8       30.27S
6HR MIN TEMP:  52; 6HR MAX TEMP:  55;

KEMMERER       SUNNY     43  41  93 NW10      30.28S
FORT BRIDGER   CLOUDY    54  47  77 W7        30.29S
ROCK SPRINGS   CLEAR     47  42  83 SW8       30.24S
6HR MIN TEMP:  44; 6HR MAX TEMP:  52;

DIXON          RAIN      53  51  94 S3        30.27F
RAWLINS        CLEAR     50  44  80 W14       30.21S
6HR MIN TEMP:  49; 6HR MAX TEMP:  51;

SARATOGA       FAIR      45  43  93 E5        30.25R
LARAMIE        CLEAR     44  40  85 W8        30.22S
6HR MIN TEMP:  44; 6HR MAX TEMP:  53;

CHEYENNE       PTCLDY    54  44  69 W12       30.15S
6HR MIN TEMP:  54; 6HR MAX TEMP:  58;

TORRINGTON     CLEAR     51  47  86 W6        30.01S
6HR MIN TEMP:  48; 6HR MAX TEMP:  55;

PINE BLUFFS    FAIR      55  46  71 CALM      30.10R

$$



USA.gov is the U.S. government's official web portal to all federal, state and local government web resources and services.